Temperature
18 18 18 18 18 18 18 18 18 18 18 18 18 18 18 18 18 18 18 18 18 18 18 18 18 18 18 18 18 18 18 18 18 18 18 18 17 17 17 17 17 17 17
18 18 18 18 18 18 18 18 18 18 18 18 18 18 18 18 18 18 18 18 18 18 18 18 18 18 18 18 18 18 18 18 17 17 17 17 17 17 17 17 16 17 17
18 18 18 18 18 18 18 18 18 18 18 18 18 18 18 18 18 18 18 18 18 18 18 18 18 18 18 18 18 18 17 17 17 17 17 16 17 17 17 17 17 17 17
18 18 17 18 18 18 18 18 18 18 18 18 18 18 18 18 18 18 18 18 18 18 18 18 18 18 18 18 17 17 17 17 17 17 17 17 16 17 17 17 17 17 17
18 18 18 18 18 18 18 18 18 18 18 18 18 18 18 18 18 18 18 18 18 18 18 18 18 18 18 17 17 17 17 17 17 17 17 16 16 17 17 17 17 17 17
18 18 18 18 18 18 18 18 18 18 18 18 18 18 18 18 18 18 18 18 18 18 18 18 18 17 17 17 17 17 17 17 17 17 16 16 16 17 17 17 17 17 17
19 18 18 18 18 18 18 18 18 18 18 18 18 18 18 18 18 18 18 18 18 18 18 18 17 17 17 17 17 17 17 17 17 17 16 16 16 17 17 17 17 17 17
19 18 18 18 18 18 18 18 18 18 18 18 18 18 18 18 18 18 18 18 18 18 17 17 17 17 17 17 17 17 17 17 17 17 17 16 17 17 17 17 17 17 17
19 18 18 18 18 18 18 18 18 18 18 18 18 17 17 17 17 17 17 17 17 17 17 17 17 17 17 17 17 17 17 17 17 17 17 16 17 17 17 17 17 17 17
18 18 18 18 17 17 18 18 18 18 18 18 18 17 17 17 17 17 17 17 17 17 17 17 17 17 17 17 17 17 17 17 17 17 17 17 17 17 17 17 17 17 17
18 18 18 18 18 17 17 17 18 18 18 18 17 18 17 17 17 17 17 17 17 17 17 17 17 17 17 17 17 17 17 17 17 17 17 17 17 17 17 17 17 17 17
19 18 18 18 18 18 17 17 17 17 17 17 17 17 17 17 17 17 17 17 17 17 17 17 17 17 17 17 17 17 17 17 17 17 17 17 17 17 17 17 17 17 17
19 19 18 18 18 18 17 17 17 17 17 17 17 17 17 17 17 17 17 17 17 17 17 17 17 17 17 17 17 17 17 17 17 17 17 17 17 17 17 17 17 17 17
19 19 19 18 18 18 18 18 18 18 17 17 17 17 17 17 17 17 17 17 17 17 17 17 17 17 17 17 17 17 17 17 17 17 17 17 17 17 17 17 17 17 17
19 19 19 18 18 18 18 18 18 18 18 18 18 17 17 17 17 17 17 17 17 17 17 17 17 17 17 17 17 17 17 17 17 17 17 17 17 17 17 17 17 17 17
20 19 19 19 19 19 18 18 18 18 18 18 18 17 17 17 17 17 17 17 17 17 17 17 17 17 17 17 17 17 17 17 17 17 17 17 17 17 17 17 17 17 17
20 20 19 19 19 19 18 18 18 18 18 18 18 18 17 17 17 17 17 17 17 17 17 17 17 17 17 17 17 17 17 17 17 17 17 17 17 17 17 17 17 17 17
20 20 19 19 19 19 19 18 18 18 18 18 18 18 17 18 17 18 17 17 17 17 17 17 17 17 17 17 17 17 17 17 17 17 17 17 17 17 17 17 17 17 17
20 20 20 19 19 19 19 18 18 18 18 18 18 18 18 18 18 18 18 18 17 17 17 17 17 17 17 17 17 17 17 17 17 17 17 17 17 17 17 17 17 17 17
21 20 20 20 20 19 19 19 18 18 18 18 18 18 18 18 18 18 18 18 17 17 17 17 17 17 17 17 18 18 18 18 18 18 18 18 17 17 17 17 17 17 17
21 21 21 20 20 20 19 19 19 18 18 18 18 18 18 18 18 18 18 18 18 17 17 17 17 17 17 17 17 18 18 18 18 18 18 18 18 18 17 17 17 17 17
22 21 21 21 20 20 19 19 19 19 18 18 18 18 18 18 18 18 18 18 18 18 18 17 17 17 17 17 17 18 18 19 18 18 18 18 18 18 18 18 17 17 17
22 22 21 21 21 20 20 19 19 19 19 18 18 18 18 18 18 18 18 18 18 18 18 18 18 17 17 17 17 17 18 19 19 19 18 18 18 18 18 18 17 17 17
23 22 22 22 21 21 20 19 19 19 19 19 18 18 18 18 18 18 18 18 18 18 18 18 18 17 17 17 17 17 17 18 18 18 19 18 18 18 18 18 18 17 17
23 22 22 22 22 21 21 20 20 19 19 19 18 18 18 18 18 18 18 18 18 18 18 18 18 18 17 17 17 17 17 17 17 17 18 18 18 18 18 17 17 17 17
23 23 22 22 22 21 21 21 20 20 19 19 19 19 19 18 18 18 18 18 18 18 18 18 18 18 17 17 17 17 17 17 17 17 18 18 18 18 17 17 17 17 17
Wind_Speed
7 9 10 9 9 10 11 12 12 12 13 13 13 14 14 14 14 14 13 13 13 13 13 13 13 13 13 13 14 14 14 15 15 15 14 14 14 14 13 12 12 14 15
9 11 11 9 10 11 11 11 12 13 13 13 13 13 13 13 13 13 12 12 12 12 12 12 12 12 12 13 14 14 14 14 14 14 14 14 13 13 11 8 8 14 14
11 12 12 10 10 11 11 11 12 13 13 13 13 12 13 12 12 12 12 12 12 12 12 12 11 12 12 13 13 13 13 13 13 12 11 12 13 12 11 10 12 13 13
11 12 12 11 10 11 11 12 12 12 12 12 12 12 11 11 11 11 11 11 11 11 11 11 11 11 12 13 13 13 13 12 11 10 9 10 11 12 11 11 11 12 12
11 11 13 11 11 11 11 11 11 11 11 11 11 11 11 10 10 10 10 10 10 10 11 11 11 11 12 12 12 12 11 11 9 7 8 9 10 12 10 10 10 10 10
11 11 14 10 11 10 10 10 10 10 10 10 10 10 10 9 9 10 9 10 10 10 10 10 10 11 11 11 11 10 10 10 9 7 8 8 10 11 10 10 10 10 10
10 11 13 10 10 10 10 9 9 10 10 9 9 9 9 9 8 8 8 9 9 9 9 9 9 10 10 10 10 9 8 7 5 7 7 7 9 11 9 9 9 9 9
9 10 12 11 10 10 9 9 9 9 9 8 8 8 8 8 8 7 8 8 8 8 8 9 9 9 10 10 9 8 7 6 6 6 6 7 11 9 9 8 8 9 9
8 9 9 11 11 10 9 9 8 8 8 8 7 8 8 8 7 7 7 7 7 8 8 8 8 9 9 9 8 7 6 4 4 5 6 7 11 9 8 8 8 8 9
7 7 7 7 8 10 11 9 8 7 7 7 7 7 7 7 7 7 8 7 6 7 8 9 9 8 8 8 8 7 6 6 5 6 5 8 11 9 8 8 8 8 9
7 6 6 7 7 6 8 10 9 8 7 8 8 8 7 6 6 7 7 7 6 7 7 8 8 8 8 9 8 7 7 5 5 4 4 10 10 9 8 8 8 9 9
9 8 6 6 6 6 6 7 6 7 7 6 6 7 5 5 4 4 8 7 7 7 7 8 8 9 9 8 9 10 6 4 4 4 6 11 9 9 9 9 9 9 10
9 8 8 7 6 5 5 5 4 4 5 5 5 5 4 4 4 4 5 6 6 7 6 8 8 7 6 4 5 6 4 4 4 3 7 11 9 10 10 10 10 10 10
8 8 7 7 6 5 4 4 4 4 4 4 5 4 4 3 3 3 2 3 4 4 4 4 4 4 4 4 4 4 4 5 4 3 6 10 9 10 10 10 11 11 11
8 8 8 7 6 6 5 4 4 4 4 4 4 5 4 3 3 2 2 2 3 3 4 4 4 3 3 5 5 5 5 5 5 5 5 10 11 11 11 12 12 12 13
9 8 8 8 8 7 6 5 4 4 4 4 4 5 5 3 3 3 3 2 3 3 3 3 4 3 4 3 4 5 6 6 6 6 6 9 12 12 12 12 13 13 13
9 9 9 9 8 7 7 6 5 5 5 4 4 4 5 5 4 3 3 3 3 3 4 4 3 3 4 5 5 5 6 6 6 7 7 7 9 14 15 14 14 14 15
10 9 9 8 8 8 7 6 5 5 4 4 4 4 5 5 5 4 3 3 3 3 3 3 4 4 4 4 4 5 5 5 7 8 8 8 7 8 13 16 15 15 15
10 10 10 9 9 8 7 6 5 4 5 5 4 4 4 5 6 5 4 3 4 3 3 4 3 4 4 4 5 5 5 6 6 7 7 8 8 8 8 12 16 16 16
11 10 10 10 9 8 7 6 5 5 5 5 4 4 4 5 6 6 5 5 5 4 4 3 3 3 4 4 5 4 5 6 6 6 7 8 8 10 10 9 11 14 18
11 11 11 10 10 8 7 7 6 6 5 5 5 5 5 5 6 6 5 5 5 5 5 5 5 5 4 3 4 4 5 7 6 6 7 6 7 8 9 9 10 9 10
13 12 12 12 11 10 8 7 5 5 5 5 4 4 6 6 6 6 6 6 6 5 5 5 5 5 4 4 3 4 4 4 5 6 5 6 7 7 8 9 9 9 10
13 14 12 12 11 11 10 7 5 5 5 5 5 5 6 6 6 6 6 6 5 6 5 5 6 6 5 5 5 4 4 3 2 3 5 5 6 5 6 7 8 9 11
14 13 13 12 12 11 10 9 9 7 6 5 5 4 5 6 6 6 5 5 5 5 4 6 5 5 5 5 4 5 5 4 4 3 4 5 5 6 6 6 7 8 9
13 13 13 12 12 12 11 11 10 9 7 5 5 4 5 5 6 6 5 5 5 5 5 5 4 5 5 5 5 4 5 5 7 6 6 5 5 5 5 6 6 7 7
13 13 13 13 12 12 12 12 11 10 8 6 6 5 5 5 5 6 6 5 5 4 4 5 5 6 5 5 5 5 5 5 5 6 7 7 6 5 5 5 6 6 6
Wind_Direction
125 117 111 113 115 118 119 123 126 126 125 124 123 125 125 124 123 122 120 119 118 116 115 116 118 119 119 121 121 122 121 120 118 116 115 115 115 116 117 122 127 113 113
127 120 117 119 121 122 119 119 121 123 123 123 123 124 125 124 122 121 121 120 119 119 119 121 120 119 120 123 123 123 123 122 121 121 123 121 117 117 119 115 97 112 119
127 125 129 123 121 119 118 117 121 122 122 122 121 120 121 120 120 122 122 121 120 122 123 124 123 121 123 126 126 126 126 124 124 131 143 129 121 120 119 112 108 118 122
127 126 122 121 121 119 118 119 120 122 123 122 122 121 122 122 124 125 124 122 121 122 123 124 126 126 126 128 128 128 129 128 132 160 147 126 126 122 123 122 122 123 124
123 121 117 123 121 119 118 118 120 121 122 122 123 125 124 125 126 124 124 123 122 122 124 125 126 128 129 129 129 131 132 134 149 177 120 121 121 127 132 132 131 129 129
129 130 120 125 121 119 118 118 118 119 121 124 127 128 129 129 127 125 125 124 124 125 126 126 127 129 130 131 134 136 139 150 176 139 128 133 128 135 139 138 137 136 136
131 124 122 126 127 125 123 121 119 120 122 125 126 127 127 126 126 128 128 127 128 130 131 132 131 132 134 135 136 137 142 171 167 136 136 134 126 135 144 145 145 145 145
130 126 126 132 131 131 131 128 126 124 123 123 120 119 119 119 123 125 128 134 135 135 133 134 135 137 140 141 141 142 151 195 161 142 143 133 126 146 152 153 153 154 150
133 134 136 142 142 142 139 133 130 126 123 123 121 122 121 120 123 125 127 133 138 141 144 146 148 146 146 149 150 152 160 210 179 144 150 136 139 158 163 163 163 162 161
141 139 138 142 137 149 146 141 136 132 130 133 131 127 127 133 137 141 146 138 142 147 151 155 155 153 154 159 161 164 175 207 183 160 155 135 149 169 173 175 176 176 175
156 156 151 144 143 145 142 142 151 148 147 156 149 144 156 152 144 154 127 136 148 153 157 158 157 157 163 166 168 175 196 199 164 163 148 133 161 177 185 189 188 189 186
166 167 161 160 157 155 150 149 162 160 154 164 147 150 150 140 146 133 126 141 145 151 156 155 158 171 191 174 171 188 197 184 182 172 143 147 173 188 196 200 199 199 196
167 171 171 169 169 163 159 159 158 157 154 160 153 155 149 154 159 153 145 148 154 164 163 155 175 185 182 172 181 187 187 203 204 187 151 159 184 199 205 207 206 205 203
173 177 176 170 173 178 175 166 173 173 170 166 158 178 167 167 169 154 162 148 159 163 158 170 180 183 181 182 198 206 206 221 207 203 158 172 195 206 212 212 210 210 209
183 184 181 177 178 182 188 202 181 180 182 171 175 181 190 187 183 167 157 161 179 170 173 184 196 188 196 201 209 210 219 226 221 220 190 183 202 213 217 216 215 214 213
191 190 186 188 189 191 195 202 198 196 189 199 196 192 203 204 190 187 177 182 194 194 195 198 192 198 217 219 220 222 229 227 220 227 226 197 202 212 219 220 219 218 219
194 194 192 194 195 199 204 207 205 210 201 204 203 202 213 216 205 203 192 197 197 193 193 210 214 220 222 219 222 228 230 231 227 227 236 233 211 206 213 220 222 222 222
198 197 200 201 194 200 208 214 213 216 209 213 214 213 217 221 216 219 215 213 198 210 207 213 222 227 235 237 231 237 236 226 232 231 234 234 237 227 209 212 218 223 225
202 202 200 207 204 205 206 211 219 221 225 226 219 222 218 220 218 221 224 221 215 218 225 235 216 234 236 248 245 231 239 235 233 235 235 237 234 237 233 203 209 219 225
203 205 206 206 206 207 207 207 220 226 226 226 223 220 229 227 221 223 224 220 226 225 232 237 241 241 250 252 264 258 248 245 236 240 241 236 232 234 237 235 220 219 219
201 203 205 206 200 202 207 211 211 216 222 221 222 221 228 230 225 224 234 218 228 230 234 235 238 236 242 246 260 258 245 239 240 237 239 244 238 237 241 238 238 240 219
202 203 202 203 201 203 205 212 217 223 223 225 231 218 227 231 231 228 228 228 226 229 228 233 234 248 248 231 248 264 256 230 222 231 229 230 242 240 240 239 237 237 247
204 203 203 202 200 203 203 206 206 210 222 216 219 218 223 227 232 239 234 236 233 234 227 228 230 240 252 246 239 255 267 266 273 225 228 233 236 242 246 244 240 239 239
204 201 200 197 197 197 199 208 209 217 222 223 229 224 218 221 230 231 232 233 236 241 236 238 231 241 252 255 246 245 258 281 274 268 236 228 233 242 254 256 254 245 241
200 197 194 193 195 196 199 204 211 222 224 224 226 220 228 218 220 227 226 229 232 241 242 249 247 247 245 250 256 256 252 247 248 257 268 261 251 248 249 251 256 258 252
196 193 190 190 195 196 200 205 211 219 222 226 224 222 220 215 217 222 224 223 231 243 244 246 244 241 248 255 260 259 258 256 256 257 267 269 267 265 260 264 262 257 253
Height
1532 1531 1530 1531 1532 1533 1534 1535 1535 1536 1537 1539 1540 1541 1542 1543 1544 1545 1546 1548 1548 1549 1551 1552 1553 1554 1555 1555 1556 1557 1558 1558 1559 1560 1560 1561 1562 1562 1563 1564 1565 1566 1565
1533 1533 1532 1533 1534 1535 1536 1537 1538 1539 1540 1541 1542 1543 1544 1545 1546 1547 1548 1549 1550 1551 1552 1553 1554 1555 1556 1557 1558 1558 1559 1560 1561 1561 1562 1563 1563 1564 1565 1566 1567 1567 1567
1534 1535 1535 1535 1537 1538 1539 1539 1540 1541 1542 1543 1544 1545 1546 1547 1548 1549 1550 1551 1552 1553 1554 1555 1556 1557 1557 1558 1559 1560 1561 1561 1562 1563 1564 1566 1565 1566 1566 1567 1568 1568 1569
1536 1537 1537 1537 1539 1540 1541 1541 1542 1543 1544 1545 1546 1547 1548 1549 1550 1551 1552 1553 1554 1555 1556 1557 1557 1558 1559 1559 1560 1561 1562 1562 1563 1565 1567 1568 1568 1567 1568 1569 1569 1570 1571
1538 1539 1538 1539 1541 1542 1543 1544 1544 1545 1546 1547 1548 1549 1550 1551 1552 1553 1553 1554 1555 1556 1557 1558 1559 1559 1560 1561 1561 1562 1563 1564 1565 1567 1569 1569 1569 1569 1569 1570 1571 1572 1572
1540 1541 1540 1541 1542 1543 1544 1545 1546 1547 1548 1549 1550 1551 1552 1552 1553 1554 1555 1555 1556 1557 1558 1559 1560 1561 1561 1562 1563 1563 1564 1565 1566 1569 1570 1570 1571 1570 1570 1571 1572 1573 1574
1542 1543 1542 1543 1544 1545 1546 1547 1548 1549 1550 1550 1551 1552 1553 1554 1554 1555 1556 1556 1557 1558 1559 1560 1561 1562 1562 1563 1564 1565 1565 1566 1569 1570 1571 1571 1571 1571 1571 1572 1573 1574 1575
1543 1544 1543 1544 1545 1546 1547 1548 1549 1550 1551 1552 1553 1554 1554 1555 1555 1556 1557 1557 1558 1559 1560 1561 1562 1562 1563 1564 1565 1566 1566 1567 1570 1571 1572 1572 1571 1572 1572 1573 1574 1575 1575
1544 1546 1546 1547 1547 1547 1548 1550 1551 1551 1552 1553 1554 1555 1555 1556 1556 1556 1557 1558 1559 1559 1560 1561 1562 1563 1564 1565 1566 1567 1568 1568 1571 1572 1573 1573 1572 1572 1573 1573 1574 1575 1576
1545 1547 1547 1549 1549 1550 1550 1550 1551 1552 1553 1554 1554 1555 1556 1556 1557 1557 1558 1558 1559 1560 1561 1561 1563 1564 1565 1566 1567 1567 1568 1569 1572 1572 1573 1573 1572 1573 1573 1574 1574 1575 1576
1546 1547 1548 1550 1550 1551 1552 1552 1552 1553 1554 1554 1555 1556 1556 1558 1558 1559 1559 1559 1559 1560 1561 1562 1563 1564 1565 1566 1567 1568 1569 1571 1572 1573 1573 1572 1572 1573 1573 1574 1574 1575 1576
1547 1548 1548 1550 1551 1552 1553 1553 1554 1555 1555 1556 1557 1557 1558 1558 1559 1559 1559 1559 1560 1561 1562 1563 1564 1565 1566 1568 1568 1568 1570 1571 1572 1573 1573 1572 1572 1573 1573 1574 1574 1574 1575
1547 1548 1549 1550 1551 1552 1553 1554 1555 1555 1556 1556 1557 1557 1558 1559 1559 1560 1560 1560 1560 1562 1563 1563 1564 1566 1568 1568 1569 1570 1570 1571 1572 1573 1572 1572 1572 1572 1573 1573 1573 1574 1575
1548 1549 1550 1550 1551 1552 1553 1554 1554 1556 1556 1557 1557 1558 1559 1559 1560 1560 1560 1561 1562 1563 1563 1565 1565 1566 1567 1567 1568 1569 1570 1571 1571 1572 1571 1571 1571 1572 1572 1572 1572 1573 1574
1548 1549 1550 1550 1551 1551 1552 1553 1555 1555 1557 1557 1557 1558 1558 1559 1560 1560 1560 1561 1562 1563 1564 1564 1565 1566 1566 1567 1568 1569 1569 1570 1570 1571 1571 1570 1570 1571 1571 1571 1571 1572 1572
1547 1549 1550 1550 1551 1551 1552 1553 1554 1556 1556 1557 1558 1558 1558 1559 1560 1560 1560 1561 1562 1562 1564 1564 1565 1565 1566 1566 1567 1568 1568 1569 1569 1569 1570 1570 1569 1569 1569 1570 1570 1570 1571
1547 1548 1549 1550 1550 1551 1552 1553 1554 1555 1556 1557 1557 1558 1558 1559 1559 1560 1561 1561 1562 1562 1562 1563 1564 1564 1565 1566 1566 1566 1567 1567 1568 1568 1568 1569 1569 1568 1568 1568 1568 1568 1569
1546 1547 1548 1550 1550 1550 1551 1552 1554 1555 1555 1556 1557 1557 1557 1558 1559 1559 1560 1561 1561 1561 1562 1562 1563 1563 1564 1564 1565 1565 1566 1566 1566 1566 1566 1566 1567 1567 1566 1566 1566 1566 1566
1544 1545 1546 1548 1549 1550 1550 1551 1552 1553 1554 1555 1556 1556 1557 1557 1558 1559 1559 1560 1560 1561 1561 1562 1562 1562 1563 1563 1563 1563 1564 1564 1564 1564 1564 1564 1564 1564 1564 1563 1563 1563 1563
1542 1543 1545 1546 1547 1548 1549 1550 1551 1552 1553 1553 1554 1554 1555 1556 1557 1557 1558 1558 1559 1560 1560 1560 1560 1560 1561 1561 1562 1562 1562 1562 1562 1562 1562 1562 1562 1561 1562 1562 1561 1561 1560
1539 1541 1542 1544 1545 1546 1547 1549 1550 1551 1551 1552 1553 1553 1554 1554 1555 1556 1557 1557 1557 1558 1558 1558 1559 1559 1559 1559 1560 1560 1560 1559 1559 1559 1559 1559 1559 1559 1559 1558 1558 1558 1558
1537 1538 1540 1541 1543 1544 1545 1547 1548 1549 1550 1550 1551 1551 1552 1552 1553 1555 1555 1555 1556 1556 1556 1556 1556 1557 1557 1558 1558 1558 1557 1558 1556 1556 1556 1555 1555 1556 1555 1555 1555 1554 1554
1533 1535 1537 1539 1540 1542 1543 1545 1546 1546 1547 1548 1548 1549 1549 1550 1551 1552 1552 1553 1553 1554 1554 1554 1554 1554 1555 1555 1555 1556 1555 1554 1554 1554 1553 1553 1552 1552 1552 1552 1551 1551 1550
1530 1532 1534 1536 1538 1540 1541 1543 1544 1545 1546 1546 1546 1547 1547 1547 1548 1550 1550 1551 1551 1552 1552 1552 1552 1552 1552 1553 1553 1552 1553 1552 1552 1551 1551 1550 1549 1549 1549 1548 1548 1547 1546
1527 1529 1531 1533 1535 1537 1539 1540 1541 1543 1544 1545 1544 1544 1544 1545 1546 1547 1548 1549 1549 1550 1550 1549 1549 1549 1550 1550 1550 1550 1550 1549 1549 1549 1547 1547 1546 1546 1545 1544 1544 1544 1543
1524 1526 1528 1530 1532 1534 1536 1537 1539 1540 1541 1542 1542 1542 1543 1544 1544 1545 1546 1546 1547 1547 1547 1547 1546 1547 1547 1546 1546 1546 1547 1546 1546 1545 1544 1543 1543 1542 1541 1540 1540 1540 1539